Latest:
 RWRRLX |
  [top]

000
ASUS41 KRLX 182010
RWRRLX
West Virginia Regional Weather Roundup
National Weather Service Charleston WV
400 PM EDT FRI APR 18 2014

Note: "fair" indicates few or no clouds below 12,000 feet with no
significant weather and/or obstructions to visibility.

WVZ003-182100-
Northern Panhandle of West Virginia

CITY           SKY/WX    TMP DP  RH WIND       PRES   REMARKS
WHEELING       PTSUNNY   66  31  27 W9G17     30.22F
$$

WVZ009-182100-
Northwest West Virginia

CITY           SKY/WX    TMP DP  RH WIND       PRES   REMARKS
PARKERSBURG    MOSUNNY   71  31  22 VRB7      30.25F
$$

WVZ006-182100-
Western West Virginia

CITY           SKY/WX    TMP DP  RH WIND       PRES   REMARKS
HUNTINGTON     MOSUNNY   72  35  25 VRB6      30.23F
$$

WVZ015-182100-
West Central West Virginia

CITY           SKY/WX    TMP DP  RH WIND       PRES   REMARKS
CHARLESTON     PTSUNNY   71  37  28 N6        30.22F
$$

WVZ031-182100-
North Central West Virginia

CITY           SKY/WX    TMP DP  RH WIND       PRES   REMARKS
CLARKSBURG     MOSUNNY   70  27  20 W8G18     30.22F
MORGANTOWN     MOSUNNY   71  26  18 W8        30.22F
$$

WVZ035-042-045-182100-
South Central West Virginia

CITY           SKY/WX    TMP DP  RH WIND       PRES   REMARKS
BECKLEY        CLOUDY    63  25  23 VRB3      30.26F
BLUEFIELD      CLOUDY    63  28  26 CALM      30.27F
LEWISBURG      CLOUDY    60  30  32 SW7       30.27F
$$

WVZ047-182100-
Northern Mountains of West Virginia

CITY           SKY/WX    TMP DP  RH WIND       PRES   REMARKS
ELKINS         PTSUNNY   69  23  17 MISG      30.23F
$$

WVZ052-182100-
Eastern Panhandle of West Virginia

CITY           SKY/WX    TMP DP  RH WIND       PRES   REMARKS
MARTINSBURG    MOSUNNY   55  34  45 SW6       30.33F
PETERSBURG     MOSUNNY   70  42  36 NW3       30.25F
$$




000
ASUS41 KRLX 181910
RWRRLX
West Virginia Regional Weather Roundup
National Weather Service Charleston WV
300 PM EDT FRI APR 18 2014

Note: "fair" indicates few or no clouds below 12,000 feet with no
significant weather and/or obstructions to visibility.

WVZ003-182000-
Northern Panhandle of West Virginia

CITY           SKY/WX    TMP DP  RH WIND       PRES   REMARKS
WHEELING       PTSUNNY   65  30  27 CALM      30.25F
$$

WVZ009-182000-
Northwest West Virginia

CITY           SKY/WX    TMP DP  RH WIND       PRES   REMARKS
PARKERSBURG    MOSUNNY   71  32  23 W8        30.28F
$$

WVZ006-182000-
Western West Virginia

CITY           SKY/WX    TMP DP  RH WIND       PRES   REMARKS
HUNTINGTON     PTSUNNY   68  36  30 CALM      30.25F
$$

WVZ015-182000-
West Central West Virginia

CITY           SKY/WX    TMP DP  RH WIND       PRES   REMARKS
CHARLESTON     PTSUNNY   72  39  30 SW8       30.25F
$$

WVZ031-182000-
North Central West Virginia

CITY           SKY/WX    TMP DP  RH WIND       PRES   REMARKS
CLARKSBURG     MOSUNNY   69  27  20 SW6       30.24F
MORGANTOWN     MOSUNNY   69  26  20 VRB3      30.25F
$$

WVZ035-042-045-182000-
South Central West Virginia

CITY           SKY/WX    TMP DP  RH WIND       PRES   REMARKS
BECKLEY        CLOUDY    63  27  25 NE5       30.28F
BLUEFIELD      CLOUDY    60  31  33 SE8       30.31F
LEWISBURG      CLOUDY    58  32  36 CALM      30.29F
$$

WVZ047-182000-
Northern Mountains of West Virginia

CITY           SKY/WX    TMP DP  RH WIND       PRES   REMARKS
ELKINS         PTSUNNY   69  23  17 NW9       30.25F
$$

WVZ052-182000-
Eastern Panhandle of West Virginia

CITY           SKY/WX    TMP DP  RH WIND       PRES   REMARKS
MARTINSBURG    PTSUNNY   54  35  48 VRB6      30.35F
PETERSBURG     MOSUNNY   66  42  42 W5        30.29F
$$




000
ASUS41 KRLX 181810
RWRRLX
West Virginia Regional Weather Roundup
National Weather Service Charleston WV
200 PM EDT FRI APR 18 2014

Note: "fair" indicates few or no clouds below 12,000 feet with no
significant weather and/or obstructions to visibility.

WVZ003-181900-
Northern Panhandle of West Virginia

CITY           SKY/WX    TMP DP  RH WIND       PRES   REMARKS
WHEELING       PTSUNNY   64  31  28 NW7       30.27F
$$

WVZ009-181900-
Northwest West Virginia

CITY           SKY/WX    TMP DP  RH WIND       PRES   REMARKS
PARKERSBURG    MOSUNNY   68  29  23 CALM      30.29F
$$

WVZ006-181900-
Western West Virginia

CITY           SKY/WX    TMP DP  RH WIND       PRES   REMARKS
HUNTINGTON     PTSUNNY   69  37  30 CALM      30.27F
$$

WVZ015-181900-
West Central West Virginia

CITY           SKY/WX    TMP DP  RH WIND       PRES   REMARKS
CHARLESTON     MOSUNNY   70  37  29 SW9       30.27F
$$

WVZ031-181900-
North Central West Virginia

CITY           SKY/WX    TMP DP  RH WIND       PRES   REMARKS
CLARKSBURG     MOSUNNY   67  27  22 W6        30.27F
MORGANTOWN     MOSUNNY   68  25  19 SW6       30.27F
$$

WVZ035-042-045-181900-
South Central West Virginia

CITY           SKY/WX    TMP DP  RH WIND       PRES   REMARKS
BECKLEY        CLOUDY    60  28  29 CALM      30.31F
BLUEFIELD      CLOUDY    61  29  29 CALM      30.32F
LEWISBURG      CLOUDY    56  28  34 SW5       30.32F
$$

WVZ047-181900-
Northern Mountains of West Virginia

CITY           SKY/WX    TMP DP  RH WIND       PRES   REMARKS
ELKINS         PTSUNNY   66  23  19 S6        30.28F
$$

WVZ052-181900-
Eastern Panhandle of West Virginia

CITY           SKY/WX    TMP DP  RH WIND       PRES   REMARKS
MARTINSBURG    PTSUNNY   51  33  50 VRB6      30.39F
PETERSBURG     PTSUNNY   62  40  43 CALM      30.32F
$$




000
ASUS41 KRLX 181710
RWRRLX
West Virginia Regional Weather Roundup
National Weather Service Charleston WV
100 PM EDT FRI APR 18 2014

Note: "fair" indicates few or no clouds below 12,000 feet with no
significant weather and/or obstructions to visibility.

WVZ003-181800-
Northern Panhandle of West Virginia

CITY           SKY/WX    TMP DP  RH WIND       PRES   REMARKS
WHEELING       PTSUNNY   61  30  31 W3        30.28F
$$

WVZ009-181800-
Northwest West Virginia

CITY           SKY/WX    TMP DP  RH WIND       PRES   REMARKS
PARKERSBURG    PTSUNNY   64  28  25 CALM      30.31F
$$

WVZ006-181800-
Western West Virginia

CITY           SKY/WX    TMP DP  RH WIND       PRES   REMARKS
HUNTINGTON     PTSUNNY   67  36  31 VRB6      30.30F
$$

WVZ015-181800-
West Central West Virginia

CITY           SKY/WX    TMP DP  RH WIND       PRES   REMARKS
CHARLESTON     PTSUNNY   69  35  28 W10G20    30.29F
$$

WVZ031-181800-
North Central West Virginia

CITY           SKY/WX    TMP DP  RH WIND       PRES   REMARKS
CLARKSBURG     MOSUNNY   66  29  24 W8        30.29F
MORGANTOWN     MOSUNNY   65  24  21 VRB3      30.29F
$$

WVZ035-042-045-181800-
South Central West Virginia

CITY           SKY/WX    TMP DP  RH WIND       PRES   REMARKS
BECKLEY        CLOUDY    60  28  29 NW7       30.33F
BLUEFIELD      CLOUDY    56  29  35 CALM      30.35F
LEWISBURG      CLOUDY    53  30  41 SW3       30.34F
$$

WVZ047-181800-
Northern Mountains of West Virginia

CITY           SKY/WX    TMP DP  RH WIND       PRES   REMARKS
ELKINS         PTSUNNY   64  23  21 VRB3      30.29F
$$

WVZ052-181800-
Eastern Panhandle of West Virginia

CITY           SKY/WX    TMP DP  RH WIND       PRES   REMARKS
MARTINSBURG    PTSUNNY   49  33  54 SE6       30.41F
PETERSBURG     PTSUNNY   57  39  51 CALM      30.35F
$$




000
ASUS41 KRLX 181610
RWRRLX
West Virginia Regional Weather Roundup
National Weather Service Charleston WV
1200 PM EDT FRI APR 18 2014

Note: "fair" indicates few or no clouds below 12,000 feet with no
significant weather and/or obstructions to visibility.

WVZ003-181700-
Northern Panhandle of West Virginia

CITY           SKY/WX    TMP DP  RH WIND       PRES   REMARKS
WHEELING       CLOUDY    56  29  35 SW8       30.30F
$$

WVZ009-181700-
Northwest West Virginia

CITY           SKY/WX    TMP DP  RH WIND       PRES   REMARKS
PARKERSBURG    CLOUDY    61  28  28 CALM      30.32F
$$

WVZ006-181700-
Western West Virginia

CITY           SKY/WX    TMP DP  RH WIND       PRES   REMARKS
HUNTINGTON     CLOUDY    64  33  31 SW8       30.31S
$$

WVZ015-181700-
West Central West Virginia

CITY           SKY/WX    TMP DP  RH WIND       PRES   REMARKS
CHARLESTON     PTSUNNY   67  30  25 W6        30.30F
$$

WVZ031-181700-
North Central West Virginia

CITY           SKY/WX    TMP DP  RH WIND       PRES   REMARKS
CLARKSBURG     PTSUNNY   62  26  25 CALM      30.30F
MORGANTOWN     PTSUNNY   63  23  21 VRB7      30.31F
$$

WVZ035-042-045-181700-
South Central West Virginia

CITY           SKY/WX    TMP DP  RH WIND       PRES   REMARKS
BECKLEY        CLOUDY    58  27  30 CALM      30.34F
BLUEFIELD      CLOUDY    59  26  28 VRB6      30.36F
LEWISBURG      CLOUDY    50  30  45 SE5       30.36F
$$

WVZ047-181700-
Northern Mountains of West Virginia

CITY           SKY/WX    TMP DP  RH WIND       PRES   REMARKS
ELKINS         PTSUNNY   62  23  22 CALM      30.32F
$$

WVZ052-181700-
Eastern Panhandle of West Virginia

CITY           SKY/WX    TMP DP  RH WIND       PRES   REMARKS
MARTINSBURG    PTSUNNY   47  32  56 VRB5      30.44F
PETERSBURG     PTSUNNY   53  38  56 CALM      30.38F
$$




000
ASUS41 KRLX 181510
RWRRLX
West Virginia Regional Weather Roundup
National Weather Service Charleston WV
1100 AM EDT FRI APR 18 2014

Note: "fair" indicates few or no clouds below 12,000 feet with no
significant weather and/or obstructions to visibility.

WVZ003-181600-
Northern Panhandle of West Virginia

CITY           SKY/WX    TMP DP  RH WIND       PRES   REMARKS
WHEELING       CLOUDY    55  26  32 VRB7      30.31S
$$

WVZ009-181600-
Northwest West Virginia

CITY           SKY/WX    TMP DP  RH WIND       PRES   REMARKS
PARKERSBURG    CLOUDY    57  26  30 SW7       30.34S
$$

WVZ006-181600-
Western West Virginia

CITY           SKY/WX    TMP DP  RH WIND       PRES   REMARKS
HUNTINGTON     CLOUDY    59  27  29 SW7       30.31F
$$

WVZ015-181600-
West Central West Virginia

CITY           SKY/WX    TMP DP  RH WIND       PRES   REMARKS
CHARLESTON     CLOUDY    64  28  25 SW10      30.31F
$$

WVZ031-181600-
North Central West Virginia

CITY           SKY/WX    TMP DP  RH WIND       PRES   REMARKS
CLARKSBURG     CLOUDY    60  25  26 SW9       30.32F
MORGANTOWN     CLOUDY    61  24  24 VRB6      30.33F
$$

WVZ035-042-045-181600-
South Central West Virginia

CITY           SKY/WX    TMP DP  RH WIND       PRES   REMARKS
BECKLEY        PTSUNNY   55  27  34 S5        30.35S
BLUEFIELD      CLOUDY    54  26  34 CALM      30.38R
LEWISBURG      NOT AVBL
$$

WVZ047-181600-
Northern Mountains of West Virginia

CITY           SKY/WX    TMP DP  RH WIND       PRES   REMARKS
ELKINS         PTSUNNY   56  25  30 CALM      30.35F
$$

WVZ052-181600-
Eastern Panhandle of West Virginia

CITY           SKY/WX    TMP DP  RH WIND       PRES   REMARKS
MARTINSBURG    CLOUDY    44  31  60 VRB3      30.47S
PETERSBURG     NOT AVBL
$$




000
ASUS41 KRLX 181410
RWRRLX
West Virginia Regional Weather Roundup
National Weather Service Charleston WV
1000 AM EDT FRI APR 18 2014

Note: "fair" indicates few or no clouds below 12,000 feet with no
significant weather and/or obstructions to visibility.

WVZ003-181500-
Northern Panhandle of West Virginia

CITY           SKY/WX    TMP DP  RH WIND       PRES   REMARKS
WHEELING       CLOUDY    51  27  39 S8        30.31S
$$

WVZ009-181500-
Northwest West Virginia

CITY           SKY/WX    TMP DP  RH WIND       PRES   REMARKS
PARKERSBURG    CLOUDY    52  30  43 CALM      30.34F
$$

WVZ006-181500-
Western West Virginia

CITY           SKY/WX    TMP DP  RH WIND       PRES   REMARKS
HUNTINGTON     CLOUDY    55  26  32 SW7       30.32R
$$

WVZ015-181500-
West Central West Virginia

CITY           SKY/WX    TMP DP  RH WIND       PRES   REMARKS
CHARLESTON     CLOUDY    59  28  30 VRB5      30.32S
$$

WVZ031-181500-
North Central West Virginia

CITY           SKY/WX    TMP DP  RH WIND       PRES   REMARKS
CLARKSBURG     CLOUDY    53  25  33 SE5       30.34S
MORGANTOWN     CLOUDY    56  26  31 SE5       30.35R
$$

WVZ035-042-045-181500-
South Central West Virginia

CITY           SKY/WX    TMP DP  RH WIND       PRES   REMARKS
BECKLEY        PTSUNNY   52  26  36 S5        30.35F
BLUEFIELD      PTSUNNY   51  27  39 SE5       30.36S
LEWISBURG      PTSUNNY   43  31  63 CALM      30.37F
$$

WVZ047-181500-
Northern Mountains of West Virginia

CITY           SKY/WX    TMP DP  RH WIND       PRES   REMARKS
ELKINS         PTSUNNY   49  29  46 CALM      30.36F
$$

WVZ052-181500-
Eastern Panhandle of West Virginia

CITY           SKY/WX    TMP DP  RH WIND       PRES   REMARKS
MARTINSBURG    CLOUDY    41  31  67 VRB3      30.48R
PETERSBURG     PTSUNNY   46  38  73 CALM      30.44F
$$




000
ASUS41 KRLX 181310
RWRRLX
West Virginia Regional Weather Roundup
National Weather Service Charleston WV
900 AM EDT FRI APR 18 2014

Note: "fair" indicates few or no clouds below 12,000 feet with no
significant weather and/or obstructions to visibility.

WVZ003-181400-
Northern Panhandle of West Virginia

CITY           SKY/WX    TMP DP  RH WIND       PRES   REMARKS
WHEELING       CLOUDY    48  28  46 SE6       30.31S
$$

WVZ009-181400-
Northwest West Virginia

CITY           SKY/WX    TMP DP  RH WIND       PRES   REMARKS
PARKERSBURG    CLOUDY    46  34  62 CALM      30.35R
$$

WVZ006-181400-
Western West Virginia

CITY           SKY/WX    TMP DP  RH WIND       PRES   REMARKS
HUNTINGTON     CLOUDY    53  24  32 S8        30.31R
$$

WVZ015-181400-
West Central West Virginia

CITY           SKY/WX    TMP DP  RH WIND       PRES   REMARKS
CHARLESTON     CLOUDY    53  28  38 S5        30.32R
$$

WVZ031-181400-
North Central West Virginia

CITY           SKY/WX    TMP DP  RH WIND       PRES   REMARKS
CLARKSBURG     CLOUDY    48  32  53 CALM      30.34R
MORGANTOWN     PTSUNNY   52  27  38 SE7       30.34S
$$

WVZ035-042-045-181400-
South Central West Virginia

CITY           SKY/WX    TMP DP  RH WIND       PRES   REMARKS
BECKLEY        CLOUDY    46  29  51 SE5       30.36S
BLUEFIELD      PTSUNNY   48  28  46 N3        30.36F
LEWISBURG      PTSUNNY   37  29  73 N5        30.39F
$$

WVZ047-181400-
Northern Mountains of West Virginia

CITY           SKY/WX    TMP DP  RH WIND       PRES   REMARKS
ELKINS         PTSUNNY   41  30  65 CALM      30.37R
$$

WVZ052-181400-
Eastern Panhandle of West Virginia

CITY           SKY/WX    TMP DP  RH WIND       PRES   REMARKS
MARTINSBURG    PTSUNNY   39  31  72 NE5       30.47F
PETERSBURG     CLOUDY    43  38  81 CALM      30.45R
$$




000
ASUS41 KRLX 181210
RWRRLX
West Virginia Regional Weather Roundup
National Weather Service Charleston WV
800 AM EDT FRI APR 18 2014

Note: "fair" indicates few or no clouds below 12,000 feet with no
significant weather and/or obstructions to visibility.

WVZ003-181300-
Northern Panhandle of West Virginia

CITY           SKY/WX    TMP DP  RH WIND       PRES   REMARKS
WHEELING       PTSUNNY   44  28  53 SE6       30.31S
$$

WVZ009-181300-
Northwest West Virginia

CITY           SKY/WX    TMP DP  RH WIND       PRES   REMARKS
PARKERSBURG    CLOUDY    43  33  68 CALM      30.34S
$$

WVZ006-181300-
Western West Virginia

CITY           SKY/WX    TMP DP  RH WIND       PRES   REMARKS
HUNTINGTON     CLOUDY    51  24  34 S6        30.30R
$$

WVZ015-181300-
West Central West Virginia

CITY           SKY/WX    TMP DP  RH WIND       PRES   REMARKS
CHARLESTON     CLOUDY    48  32  53 CALM      30.31S
$$

WVZ031-181300-
North Central West Virginia

CITY           SKY/WX    TMP DP  RH WIND       PRES   REMARKS
CLARKSBURG     PTSUNNY   41  31  67 CALM      30.33S
MORGANTOWN     PTSUNNY   47  28  47 SE5       30.34S
$$

WVZ035-042-045-181300-
South Central West Virginia

CITY           SKY/WX    TMP DP  RH WIND       PRES   REMARKS
BECKLEY        CLOUDY    42  28  57 SE8       30.36R
BLUEFIELD      CLOUDY    44  26  49 CALM      30.37R
LEWISBURG      CLOUDY    32  26  77 CALM      30.39R
$$

WVZ047-181300-
Northern Mountains of West Virginia

CITY           SKY/WX    TMP DP  RH WIND       PRES   REMARKS
ELKINS         PTSUNNY   35  29  78 CALM      30.36R
$$

WVZ052-181300-
Eastern Panhandle of West Virginia

CITY           SKY/WX    TMP DP  RH WIND       PRES   REMARKS
MARTINSBURG    MOSUNNY   37  30  75 E3        30.48S
PETERSBURG     CLOUDY    37  35  92 W5        30.44S
$$




000
ASUS41 KRLX 181110
RWRRLX
West Virginia Regional Weather Roundup
National Weather Service Charleston WV
700 AM EDT FRI APR 18 2014

Note: "fair" indicates few or no clouds below 12,000 feet with no
significant weather and/or obstructions to visibility.

WVZ003-181200-
Northern Panhandle of West Virginia

CITY           SKY/WX    TMP DP  RH WIND       PRES   REMARKS
WHEELING       MOCLDY    43  26  51 SE6       30.31S
$$

WVZ009-181200-
Northwest West Virginia

CITY           SKY/WX    TMP DP  RH WIND       PRES   REMARKS
PARKERSBURG    MOCLDY    42  27  55 CALM      30.34R
$$

WVZ006-181200-
Western West Virginia

CITY           SKY/WX    TMP DP  RH WIND       PRES   REMARKS
HUNTINGTON     CLOUDY    51  23  33 S9        30.29S
$$

WVZ015-181200-
West Central West Virginia

CITY           SKY/WX    TMP DP  RH WIND       PRES   REMARKS
CHARLESTON     CLOUDY    50  24  36 CALM      30.31R
$$

WVZ031-181200-
North Central West Virginia

CITY           SKY/WX    TMP DP  RH WIND       PRES   REMARKS
CLARKSBURG     MOCLDY    39  27  62 CALM      30.33R
MORGANTOWN     MOCLDY    44  25  47 E6        30.34R
$$

WVZ035-042-045-181200-
South Central West Virginia

CITY           SKY/WX    TMP DP  RH WIND       PRES   REMARKS
BECKLEY        CLOUDY    42  27  55 SE7       30.34R
BLUEFIELD      CLOUDY    44  24  45 SE3       30.34S
LEWISBURG      MOCLDY    31  25  79 NE5       30.37S
$$

WVZ047-181200-
Northern Mountains of West Virginia

CITY           SKY/WX    TMP DP  RH WIND       PRES   REMARKS
ELKINS         CLOUDY    32  27  81 CALM      30.35S
$$

WVZ052-181200-
Eastern Panhandle of West Virginia

CITY           SKY/WX    TMP DP  RH WIND       PRES   REMARKS
MARTINSBURG    PTCLDY    34  28  79 CALM      30.48S
PETERSBURG     MOCLDY    35  33  91 CALM      30.44S
$$




000
ASUS41 KRLX 181010
RWRRLX
West Virginia Regional Weather Roundup
National Weather Service Charleston WV
600 AM EDT FRI APR 18 2014

Note: "fair" indicates few or no clouds below 12,000 feet with no
significant weather and/or obstructions to visibility.

WVZ003-181100-
Northern Panhandle of West Virginia

CITY           SKY/WX    TMP DP  RH WIND       PRES   REMARKS
WHEELING       MOCLDY    45  26  47 SE6       30.31R
$$

WVZ009-181100-
Northwest West Virginia

CITY           SKY/WX    TMP DP  RH WIND       PRES   REMARKS
PARKERSBURG    MOCLDY    44  27  51 CALM      30.33R
$$

WVZ006-181100-
Western West Virginia

CITY           SKY/WX    TMP DP  RH WIND       PRES   REMARKS
HUNTINGTON     CLOUDY    51  24  34 S6        30.29R
$$

WVZ015-181100-
West Central West Virginia

CITY           SKY/WX    TMP DP  RH WIND       PRES   REMARKS
CHARLESTON     CLOUDY    51  24  34 CALM      30.30S
$$

WVZ031-181100-
North Central West Virginia

CITY           SKY/WX    TMP DP  RH WIND       PRES   REMARKS
CLARKSBURG     CLOUDY    40  26  57 CALM      30.32R
MORGANTOWN     MOCLDY    45  24  43 E5        30.33R
$$

WVZ035-042-045-181100-
South Central West Virginia

CITY           SKY/WX    TMP DP  RH WIND       PRES   REMARKS
BECKLEY        CLOUDY    43  25  49 SE8       30.33F
BLUEFIELD      CLOUDY    45  24  43 VRB6      30.34S
LEWISBURG      MOCLDY    32  25  74 N3        30.37S
$$

WVZ047-181100-
Northern Mountains of West Virginia

CITY           SKY/WX    TMP DP  RH WIND       PRES   REMARKS
ELKINS         CLOUDY    33  26  75 CALM      30.35R
$$

WVZ052-181100-
Eastern Panhandle of West Virginia

CITY           SKY/WX    TMP DP  RH WIND       PRES   REMARKS
MARTINSBURG    MOCLDY    35  28  75 CALM      30.48S
PETERSBURG     MOCLDY    36  34  91 CALM      30.44R
$$




000
ASUS41 KRLX 180910
RWRRLX
West Virginia Regional Weather Roundup
National Weather Service Charleston WV
500 AM EDT FRI APR 18 2014

Note: "fair" indicates few or no clouds below 12,000 feet with no
significant weather and/or obstructions to visibility.

WVZ003-181000-
Northern Panhandle of West Virginia

CITY           SKY/WX    TMP DP  RH WIND       PRES   REMARKS
WHEELING       MOCLDY    45  26  47 SE6       30.30R
$$

WVZ009-181000-
Northwest West Virginia

CITY           SKY/WX    TMP DP  RH WIND       PRES   REMARKS
PARKERSBURG    MOCLDY    50  22  33 S3        30.32S
$$

WVZ006-181000-
Western West Virginia

CITY           SKY/WX    TMP DP  RH WIND       PRES   REMARKS
HUNTINGTON     MOCLDY    52  24  33 S6        30.28R
$$

WVZ015-181000-
West Central West Virginia

CITY           SKY/WX    TMP DP  RH WIND       PRES   REMARKS
CHARLESTON     CLOUDY    51  23  33 CALM      30.30S
$$

WVZ031-181000-
North Central West Virginia

CITY           SKY/WX    TMP DP  RH WIND       PRES   REMARKS
CLARKSBURG     MOCLDY    42  26  53 CALM      30.31S
MORGANTOWN     MOCLDY    46  24  42 E5        30.32S
$$

WVZ035-042-045-181000-
South Central West Virginia

CITY           SKY/WX    TMP DP  RH WIND       PRES   REMARKS
BECKLEY        CLOUDY    43  24  47 SE7       30.34S
BLUEFIELD      MOCLDY    46  22  38 S10       30.34F
LEWISBURG      MOCLDY    31  25  78 N5        30.38S
$$

WVZ047-181000-
Northern Mountains of West Virginia

CITY           SKY/WX    TMP DP  RH WIND       PRES   REMARKS
ELKINS         CLOUDY    34  25  69 CALM      30.34R
$$

WVZ052-181000-
Eastern Panhandle of West Virginia

CITY           SKY/WX    TMP DP  RH WIND       PRES   REMARKS
MARTINSBURG    MOCLDY    36  28  73 CALM      30.48F
PETERSBURG     MOCLDY    36  34  92 CALM      30.43R
$$




    US Dept of Commerce
    National Oceanic and Atmospheric Administration
    National Weather Service
    1325 East West Highway
    Silver Spring, MD 20910
    Page Author: NWS Internet Services Team
Disclaimer
Information Quality
Credits
Glossary
Privacy Policy
Freedom of Information Act (FOIA)
About Us
Career Opportunities